Regional Weather Roundup
Issued by NWS Bismarck, ND

Home | Current Version | Previous Version | Text Only | Print | Product List | Glossary On
Versions: 1 2 3 4 5 6 7 8 9 10 11 12 13 14 15 16 17 18 19 20 21 22 23 24 25 26 27 28 29 30 31 32 33 34 35 36 37 38 39 40 41 42 43 44 45 46 47 48 49 50
000
ASUS43 KBIS 230510
RWRBIS

NWR BROADCAST TEXT
NATIONAL WEATHER SERVICE BISMARCK ND
1200 AM CDT FRI JUN 23 2017

NOTE: "FAIR" INDICATES FEW OR NO CLOUDS BELOW 12,000 FEET WITH NO
SIGNIFICANT WEATHER AND/OR OBSTRUCTIONS TO VISIBILITY.


CITY           SKY/WX    TMP DP  RH WIND       PRES   REMARKS
WILLISTON      CLOUDY    55  48  77 NW24G32   30.03R
MINOT          CLOUDY    59  51  75 W24G33    29.86R
MINOT AFB      CLOUDY    58  51  75 NW30G39   29.85R
BISMARCK       MOCLDY    61  46  57 W15G23    29.91R
DICKINSON      CLOUDY    54  46  74 NW26G36   30.00R
GARRISON         N/A     55  52  89 NW26G32   29.90R
HETTINGER ARPT MOCLDY    53  43  68 NW17      30.05R
JAMESTOWN      CLEAR     60  45  57 NW23      29.80R
HAZEN          CLOUDY    59  54  82 NW18G31   29.94R
LINTON         FAIR     N/A N/A N/A NW16G23   29.93R
MANDAN         MOCLDY    57  46  67 W15G22    29.92R
STANLEY        CLOUDY    52  52 100 NW22G36   29.97R
TIOGA          CLOUDY    52  52 100 NW26G38   29.99R
WATFORD CITY   CLOUDY    54  48  82 NW21G32   30.02R
$$

CITY           SKY/WX    TMP DP  RH WIND       PRES   REMARKS
GRAND FORKS    CLEAR     60  48  64 W13       29.69F
GRAND FORKS AF CLEAR     60  47  62 NW16G29   29.70F
DEVILS LAKE    PTCLDY    59  50  72 W18       29.75F
FARGO          PTCLDY    58  41  53 W7        29.73S
CAVALIER       FAIR      57  50  77 W15G21    29.66F
GRAFTON        FAIR      59  50  72 W12       29.70F
GWINNER        CLEAR     61  41  48 W9        29.79S
LANGDON        MOCLDY    55  52  88 W13       29.71F
ROLLA            N/A     57  52  82 NW25G32   29.74R
$$

CITY           SKY/WX    TMP DP  RH WIND       PRES   REMARKS
ABERDEEN       CLEAR     53  46  77 W8        29.84R
MOBRIDGE       LGT RAIN  66  36  32 NW24G30   29.90R
BUFFALO          N/A     53  43  68 NW22G31   30.04R
RAPID CITY     MOCLDY    64  33  31 N32G41    30.06R
GLASGOW        MOCLDY    54  43  66 NW13      30.14R
SIDNEY         CLOUDY    54  46  74 NW17G28   30.07R
WOLF POINT     CLOUDY    55  44  66 NW13      30.12R
GLENDIVE       CLOUDY    53  44  71 NW24G31   30.11R
MILES CITY     CLOUDY    56  41  57 NW15      30.17R
BAKER          MOCLDY    52  43  71 NW21G30   30.11R
$$

CITY           SKY/WX    TMP DP  RH WIND       PRES   REMARKS
BILLINGS       MOCLDY    54  35  48 NE3       30.27R
GREAT FALLS    CLEAR     49  38  65 SE5       30.29R
REGINA         MOCLDY    52  41  66 NW24G31   30.02R
ESTEVAN        CLOUDY    52  48  87 NW23G32   29.96R
$$





USA.gov is the U.S. government's official web portal to all federal, state and local government web resources and services.